Time,TemperatureF,DewpointF,PressureIn,WindDirection,WindDirectionDegrees,WindSpeedMPH,WindSpeedGustMPH,Humidity,HourlyPrecipIn,Conditions,Clouds,dailyrainin,SolarRadiationWatts/m^2,SoftwareType,DateUTC
2013-08-16 00:01:00,81.1,78.6,30.01,East,96,0.0,6.0,92,0.01,,,0.01,0.0,meteohub,2013-08-16 04:01:00,
2013-08-16 00:02:00,81.0,78.4,30.01,East,96,0.0,6.0,92,0.01,,,0.01,0.0,meteohub,2013-08-16 04:02:00,
2013-08-16 00:03:00,81.0,78.4,30.01,East,96,0.0,6.0,92,0.01,,,0.01,0.0,meteohub,2013-08-16 04:03:00,
2013-08-16 00:08:00,80.8,78.3,30.01,ESE,106,0.0,0.0,92,0.01,,,0.00,0.0,meteohub,2013-08-16 04:08:00,
2013-08-16 00:13:00,80.4,77.9,30.01,ESE,106,0.0,6.0,92,0.01,,,0.00,0.0,meteohub,2013-08-16 04:13:00,
2013-08-16 00:18:00,80.4,77.5,30.01,ESE,112,0.0,6.0,91,0.00,,,0.00,0.0,meteohub,2013-08-16 04:18:00,
2013-08-16 00:23:00,80.2,77.4,30.01,ESE,112,0.0,6.0,91,0.00,,,0.00,0.0,meteohub,2013-08-16 04:23:00,
2013-08-16 00:28:00,80.4,77.2,30.01,ESE,112,0.0,4.0,90,0.00,,,0.00,0.0,meteohub,2013-08-16 04:28:00,
2013-08-16 00:33:00,80.4,77.2,30.01,ESE,113,0.0,4.0,90,0.00,,,0.00,0.0,meteohub,2013-08-16 04:33:00,
2013-08-16 00:38:00,80.2,77.0,30.01,ESE,112,0.0,0.0,90,0.00,,,0.00,0.0,meteohub,2013-08-16 04:38:00,
2013-08-16 00:43:00,80.2,76.6,30.00,ESE,117,0.0,0.0,89,0.00,,,0.00,0.0,meteohub,2013-08-16 04:43:00,
2013-08-16 00:48:00,80.2,76.6,30.00,ESE,106,0.0,7.0,89,0.00,,,0.00,0.0,meteohub,2013-08-16 04:48:00,
2013-08-16 00:53:00,80.2,76.3,30.00,East,79,0.0,7.0,88,0.00,,,0.00,0.0,meteohub,2013-08-16 04:53:00,
2013-08-16 00:58:00,80.8,76.5,29.99,East,88,0.0,8.0,87,0.00,,,0.00,0.0,meteohub,2013-08-16 04:58:00,
2013-08-16 01:04:00,80.4,75.9,29.99,ENE,76,0.0,8.0,86,0.00,,,0.00,0.0,meteohub,2013-08-16 05:04:00,
2013-08-16 01:08:00,80.8,76.3,29.99,East,89,0.0,8.0,86,0.00,,,0.00,0.0,meteohub,2013-08-16 05:08:00,
2013-08-16 01:13:00,81.0,76.1,29.99,NE,37,6.0,8.0,85,0.00,,,0.00,0.0,meteohub,2013-08-16 05:13:00,
2013-08-16 01:20:00,81.0,76.1,29.99,East,82,0.0,8.0,85,0.00,,,0.00,0.0,meteohub,2013-08-16 05:20:00,
2013-08-16 01:25:00,81.0,76.1,29.99,East,85,0.0,8.0,85,0.00,,,0.00,0.0,meteohub,2013-08-16 05:25:00,
2013-08-16 01:30:00,81.0,76.1,29.99,East,79,0.0,8.0,85,0.00,,,0.00,0.0,meteohub,2013-08-16 05:30:00,
2013-08-16 01:35:00,81.0,76.1,29.99,East,88,0.0,6.0,85,0.00,,,0.00,0.0,meteohub,2013-08-16 05:35:00,
2013-08-16 01:40:00,81.0,76.1,29.99,East,86,0.0,0.0,85,0.00,,,0.00,0.0,meteohub,2013-08-16 05:40:00,
2013-08-16 01:45:00,81.0,76.1,29.99,East,86,0.0,0.0,85,0.00,,,0.00,0.0,meteohub,2013-08-16 05:45:00,
2013-08-16 01:50:00,80.4,76.1,29.99,East,86,0.0,0.0,87,0.00,,,0.00,0.0,meteohub,2013-08-16 05:50:00,
2013-08-16 01:55:00,79.9,75.9,29.99,East,86,0.0,0.0,88,0.00,,,0.00,0.0,meteohub,2013-08-16 05:55:00,
2013-08-16 02:00:00,79.9,76.3,29.98,East,89,0.0,0.0,89,0.00,,,0.00,0.0,meteohub,2013-08-16 06:00:00,
2013-08-16 02:05:00,79.3,76.1,29.98,East,86,0.0,0.0,90,0.00,,,0.00,0.0,meteohub,2013-08-16 06:05:00,
2013-08-16 02:10:00,79.2,76.3,29.98,East,89,0.0,0.0,91,0.00,,,0.00,0.0,meteohub,2013-08-16 06:10:00,
2013-08-16 02:20:00,79.0,76.5,29.97,East,86,0.0,0.0,92,0.00,,,0.00,0.0,meteohub,2013-08-16 06:20:00,
2013-08-16 02:25:00,78.8,76.3,29.97,East,88,0.0,0.0,92,0.00,,,0.00,0.0,meteohub,2013-08-16 06:25:00,
2013-08-16 02:30:00,78.6,76.1,29.97,East,86,0.0,0.0,92,0.00,,,0.00,0.0,meteohub,2013-08-16 06:30:00,
2013-08-16 02:35:00,78.8,76.6,29.97,East,88,0.0,0.0,93,0.00,,,0.00,0.0,meteohub,2013-08-16 06:35:00,
2013-08-16 02:40:00,78.6,76.5,29.97,East,86,0.0,0.0,93,0.00,,,0.00,0.0,meteohub,2013-08-16 06:40:00,
2013-08-16 02:45:00,78.8,76.6,29.96,East,88,0.0,0.0,93,0.00,,,0.00,0.0,meteohub,2013-08-16 06:45:00,
2013-08-16 02:50:00,78.8,76.6,29.96,South,184,0.0,11.0,93,0.06,,,0.06,0.0,meteohub,2013-08-16 06:50:00,
2013-08-16 02:55:00,78.4,76.3,29.96,South,181,0.0,11.0,93,0.07,,,0.07,0.0,meteohub,2013-08-16 06:55:00,
2013-08-16 03:00:00,78.1,76.3,29.96,South,181,0.0,11.0,94,0.07,,,0.07,0.0,meteohub,2013-08-16 07:00:00,
2013-08-16 03:05:00,77.7,75.9,29.96,South,184,0.0,0.0,94,0.07,,,0.07,0.0,meteohub,2013-08-16 07:05:00,
2013-08-16 03:10:00,77.5,75.9,29.96,South,182,0.0,0.0,95,0.07,,,0.07,0.0,meteohub,2013-08-16 07:10:00,
2013-08-16 03:15:00,77.4,76.1,29.96,South,181,0.0,0.0,96,0.07,,,0.07,0.0,meteohub,2013-08-16 07:15:00,
2013-08-16 03:20:00,77.2,75.9,29.96,South,181,0.0,0.0,96,0.07,,,0.07,0.0,meteohub,2013-08-16 07:20:00,
2013-08-16 03:25:00,77.0,75.7,29.96,South,179,0.0,0.0,96,0.07,,,0.07,0.0,meteohub,2013-08-16 07:25:00,
2013-08-16 03:30:00,77.0,75.7,29.96,South,181,0.0,0.0,96,0.07,,,0.07,0.0,meteohub,2013-08-16 07:30:00,
2013-08-16 03:35:00,76.8,75.6,29.96,South,176,0.0,0.0,96,0.07,,,0.07,0.0,meteohub,2013-08-16 07:35:00,
2013-08-16 03:40:00,76.8,75.9,29.96,South,181,0.0,0.0,97,0.07,,,0.07,0.0,meteohub,2013-08-16 07:40:00,
2013-08-16 03:46:00,76.8,75.9,29.96,South,181,0.0,0.0,97,0.07,,,0.07,0.0,meteohub,2013-08-16 07:46:00,
2013-08-16 03:51:00,76.5,75.6,29.96,South,181,0.0,0.0,97,0.00,,,0.07,0.0,meteohub,2013-08-16 07:51:00,
2013-08-16 03:56:00,76.3,75.4,29.96,South,181,0.0,0.0,97,0.00,,,0.07,0.0,meteohub,2013-08-16 07:56:00,
2013-08-16 04:01:00,76.3,75.4,29.96,South,181,0.0,0.0,97,0.00,,,0.07,0.0,meteohub,2013-08-16 08:01:00,
2013-08-16 04:06:00,76.3,75.7,29.96,South,181,0.0,0.0,98,0.00,,,0.07,0.0,meteohub,2013-08-16 08:06:00,
2013-08-16 04:11:00,76.3,75.7,29.96,South,181,0.0,0.0,98,0.00,,,0.07,0.0,meteohub,2013-08-16 08:11:00,
2013-08-16 04:16:00,76.3,75.7,29.96,South,179,0.0,0.0,98,0.00,,,0.07,0.0,meteohub,2013-08-16 08:16:00,
2013-08-16 04:21:00,76.3,75.7,29.96,South,181,0.0,0.0,98,0.00,,,0.07,0.0,meteohub,2013-08-16 08:21:00,
2013-08-16 04:26:00,76.3,75.7,29.96,South,178,0.0,0.0,98,0.00,,,0.07,0.0,meteohub,2013-08-16 08:26:00,
2013-08-16 04:31:00,76.6,76.1,29.96,South,181,0.0,0.0,98,0.00,,,0.07,0.0,meteohub,2013-08-16 08:31:00,
2013-08-16 04:36:00,76.5,75.9,29.96,South,181,0.0,0.0,98,0.00,,,0.07,0.0,meteohub,2013-08-16 08:36:00,
2013-08-16 04:41:00,76.5,75.9,29.96,South,181,0.0,0.0,98,0.00,,,0.07,0.0,meteohub,2013-08-16 08:41:00,
2013-08-16 04:46:00,76.6,76.1,29.96,South,181,0.0,0.0,98,0.00,,,0.07,0.0,meteohub,2013-08-16 08:46:00,
2013-08-16 04:51:00,76.6,76.1,29.96,South,181,0.0,0.0,98,0.00,,,0.07,0.0,meteohub,2013-08-16 08:51:00,
2013-08-16 04:56:00,76.6,76.3,29.96,South,181,0.0,0.0,99,0.00,,,0.07,0.0,meteohub,2013-08-16 08:56:00,
2013-08-16 05:01:00,76.5,76.1,29.96,South,179,0.0,0.0,99,0.00,,,0.07,0.0,meteohub,2013-08-16 09:01:00,
2013-08-16 05:06:00,76.5,76.1,29.96,South,181,0.0,0.0,99,0.00,,,0.07,0.0,meteohub,2013-08-16 09:06:00,
2013-08-16 05:11:00,76.5,76.1,29.96,South,181,0.0,0.0,99,0.00,,,0.07,0.0,meteohub,2013-08-16 09:11:00,
2013-08-16 05:16:00,76.5,76.1,29.96,South,181,0.0,0.0,99,0.00,,,0.07,0.0,meteohub,2013-08-16 09:16:00,
2013-08-16 05:21:00,76.5,76.1,29.96,South,181,0.0,0.0,99,0.00,,,0.07,0.0,meteohub,2013-08-16 09:21:00,
2013-08-16 05:27:00,76.5,76.1,29.96,South,179,0.0,0.0,99,0.00,,,0.07,0.0,meteohub,2013-08-16 09:27:00,
2013-08-16 05:32:00,76.5,76.1,29.96,South,179,0.0,0.0,99,0.00,,,0.07,0.0,meteohub,2013-08-16 09:32:00,
2013-08-16 05:37:00,76.5,76.1,29.96,South,181,0.0,0.0,99,0.00,,,0.07,0.0,meteohub,2013-08-16 09:37:00,
2013-08-16 05:42:00,76.5,76.1,29.96,South,182,0.0,0.0,99,0.00,,,0.07,0.0,meteohub,2013-08-16 09:42:00,
2013-08-16 05:47:00,76.3,75.9,29.96,South,179,0.0,0.0,99,0.00,,,0.07,0.0,meteohub,2013-08-16 09:47:00,
2013-08-16 05:52:00,76.3,75.9,29.96,South,181,0.0,0.0,99,0.00,,,0.07,0.0,meteohub,2013-08-16 09:52:00,
2013-08-16 05:57:00,76.3,75.9,29.96,South,181,0.0,0.0,99,0.00,,,0.07,0.0,meteohub,2013-08-16 09:57:00,
2013-08-16 06:02:00,76.5,76.1,29.96,South,181,0.0,0.0,99,0.00,,,0.07,0.0,meteohub,2013-08-16 10:02:00,
2013-08-16 06:07:00,76.5,76.1,29.96,South,179,0.0,0.0,99,0.00,,,0.07,0.0,meteohub,2013-08-16 10:07:00,
2013-08-16 06:12:00,76.5,76.1,29.97,South,179,0.0,0.0,99,0.00,,,0.07,0.0,meteohub,2013-08-16 10:12:00,
2013-08-16 06:17:00,76.5,76.1,29.97,South,181,0.0,0.0,99,0.00,,,0.07,0.0,meteohub,2013-08-16 10:17:00,
2013-08-16 06:22:00,76.8,76.8,29.97,South,181,0.0,0.0,100,0.00,,,0.07,5.0,meteohub,2013-08-16 10:22:00,
2013-08-16 06:27:00,77.0,76.6,29.98,South,182,0.0,0.0,99,0.00,,,0.07,9.0,meteohub,2013-08-16 10:27:00,
2013-08-16 06:32:00,76.5,76.1,29.98,South,182,0.0,0.0,99,0.00,,,0.07,11.0,meteohub,2013-08-16 10:32:00,
2013-08-16 06:37:00,76.5,76.1,29.98,South,182,0.0,0.0,99,0.00,,,0.07,26.0,meteohub,2013-08-16 10:37:00,
2013-08-16 06:43:00,76.5,76.1,29.98,South,182,0.0,0.0,99,0.00,,,0.07,84.0,meteohub,2013-08-16 10:43:00,
2013-08-16 06:48:00,76.8,76.5,29.98,South,182,0.0,0.0,99,0.00,,,0.07,100.0,meteohub,2013-08-16 10:48:00,
2013-08-16 06:53:00,77.2,76.8,29.98,South,182,0.0,0.0,99,0.00,,,0.07,150.0,meteohub,2013-08-16 10:53:00,
2013-08-16 06:58:00,77.4,77.0,29.98,South,182,0.0,0.0,99,0.00,,,0.07,99.0,meteohub,2013-08-16 10:58:00,
2013-08-16 07:03:00,77.7,77.4,29.98,South,184,0.0,0.0,99,0.00,,,0.07,88.0,meteohub,2013-08-16 11:03:00,
2013-08-16 07:08:00,77.5,77.2,29.98,South,184,0.0,0.0,99,0.00,,,0.07,181.0,meteohub,2013-08-16 11:08:00,
2013-08-16 07:13:00,77.9,77.5,29.99,South,181,0.0,0.0,99,0.00,,,0.07,90.0,meteohub,2013-08-16 11:13:00,
2013-08-16 07:18:00,77.9,77.4,29.99,South,184,0.0,0.0,98,0.00,,,0.07,33.0,meteohub,2013-08-16 11:18:00,
2013-08-16 07:23:00,77.9,77.4,29.99,South,182,0.0,0.0,98,0.00,,,0.07,28.0,meteohub,2013-08-16 11:23:00,
2013-08-16 07:28:00,78.1,77.5,29.99,South,182,0.0,0.0,98,0.00,,,0.07,40.0,meteohub,2013-08-16 11:28:00,
2013-08-16 07:33:00,78.3,77.7,29.99,South,182,0.0,0.0,98,0.00,,,0.07,134.0,meteohub,2013-08-16 11:33:00,
2013-08-16 07:38:00,78.8,78.3,29.99,South,184,0.0,0.0,98,0.02,,,0.07,303.0,meteohub,2013-08-16 11:38:00,
2013-08-16 07:43:00,78.8,78.3,29.99,South,181,0.0,0.0,98,0.03,,,0.10,215.0,meteohub,2013-08-16 11:43:00,
2013-08-16 07:48:00,79.3,78.8,29.99,South,181,0.0,0.0,98,0.03,,,0.10,299.0,meteohub,2013-08-16 11:48:00,
2013-08-16 07:53:00,79.5,79.0,29.99,SSE,157,0.0,0.0,98,0.03,,,0.10,241.0,meteohub,2013-08-16 11:53:00,
2013-08-16 07:58:00,79.9,79.0,29.99,SE,137,0.0,0.0,97,0.03,,,0.10,90.0,meteohub,2013-08-16 11:58:00,
2013-08-16 08:03:00,79.9,79.0,29.99,SE,134,0.0,0.0,97,0.03,,,0.10,267.0,meteohub,2013-08-16 12:03:00,
2013-08-16 08:08:00,80.1,79.2,29.99,SE,131,0.0,0.0,97,0.03,,,0.10,306.0,meteohub,2013-08-16 12:08:00,
2013-08-16 08:13:00,80.2,79.3,29.99,SE,133,0.0,0.0,97,0.03,,,0.10,283.0,meteohub,2013-08-16 12:13:00,
2013-08-16 08:18:00,80.8,79.5,29.99,SE,131,0.0,0.0,96,0.03,,,0.10,473.0,meteohub,2013-08-16 12:18:00,
2013-08-16 08:23:00,81.1,79.5,29.99,SE,133,0.0,0.0,95,0.03,,,0.10,509.0,meteohub,2013-08-16 12:23:00,
2013-08-16 08:28:00,81.9,79.9,29.99,SE,133,0.0,0.0,94,0.03,,,0.10,540.0,meteohub,2013-08-16 12:28:00,
2013-08-16 08:33:00,82.2,79.7,29.99,SE,133,0.0,1.0,92,0.03,,,0.10,118.0,meteohub,2013-08-16 12:33:00,
2013-08-16 08:38:00,82.0,79.2,29.99,SE,134,0.0,1.0,91,0.01,,,0.10,230.0,meteohub,2013-08-16 12:38:00,
2013-08-16 08:43:00,81.9,79.0,29.99,SE,131,0.0,1.0,91,0.00,,,0.10,144.0,meteohub,2013-08-16 12:43:00,
2013-08-16 08:48:00,81.9,79.0,29.99,SE,133,0.0,0.0,91,0.00,,,0.10,72.0,meteohub,2013-08-16 12:48:00,
2013-08-16 08:53:00,81.9,79.0,29.99,SE,131,0.0,0.0,91,0.00,,,0.10,134.0,meteohub,2013-08-16 12:53:00,
2013-08-16 08:58:00,81.9,79.0,29.99,SE,133,0.0,0.0,91,0.00,,,0.10,208.0,meteohub,2013-08-16 12:58:00,
2013-08-16 09:03:00,82.0,79.2,29.99,ESE,112,0.0,0.0,91,0.00,,,0.10,230.0,meteohub,2013-08-16 13:03:00,
2013-08-16 09:08:00,82.2,79.3,29.99,South,174,0.0,2.0,91,0.00,,,0.10,114.0,meteohub,2013-08-16 13:08:00,
2013-08-16 09:13:00,82.0,79.2,29.99,South,184,0.0,9.0,91,0.00,,,0.10,58.0,meteohub,2013-08-16 13:13:00,
2013-08-16 09:19:00,81.3,78.8,29.99,South,188,0.0,9.0,92,0.00,,,0.10,72.0,meteohub,2013-08-16 13:19:00,
2013-08-16 09:24:00,81.1,79.0,29.99,SE,141,0.0,3.0,93,0.00,,,0.10,53.0,meteohub,2013-08-16 13:24:00,
2013-08-16 09:29:00,80.2,78.1,29.99,SE,133,0.0,6.0,93,0.01,,,0.11,81.0,meteohub,2013-08-16 13:29:00,
2013-08-16 09:34:00,80.1,78.3,29.99,SE,133,0.0,6.0,94,0.03,,,0.12,70.0,meteohub,2013-08-16 13:34:00,
2013-08-16 09:39:00,79.9,78.3,29.99,SE,137,0.0,6.0,95,0.04,,,0.14,169.0,meteohub,2013-08-16 13:39:00,
2013-08-16 09:44:00,80.2,79.0,29.99,SE,137,0.0,6.0,96,0.05,,,0.15,146.0,meteohub,2013-08-16 13:44:00,
2013-08-16 09:49:00,80.2,79.0,29.99,SE,130,0.0,6.0,96,0.05,,,0.15,241.0,meteohub,2013-08-16 13:49:00,
2013-08-16 09:54:00,81.1,80.6,29.99,SE,133,0.0,0.0,98,0.05,,,0.15,241.0,meteohub,2013-08-16 13:54:00,
2013-08-16 09:59:00,81.9,80.6,29.99,NE,54,8.0,0.0,96,0.05,,,0.15,947.0,meteohub,2013-08-16 13:59:00,
2013-08-16 10:05:00,82.4,80.4,29.99,NNE,32,9.0,9.0,94,0.05,,,0.15,232.0,meteohub,2013-08-16 14:05:00,
2013-08-16 10:10:00,83.1,80.6,29.99,NE,44,8.0,14.0,92,0.05,,,0.15,232.0,meteohub,2013-08-16 14:10:00,
2013-08-16 10:15:00,83.1,79.9,29.99,NE,52,2.0,13.0,90,0.05,,,0.15,313.0,meteohub,2013-08-16 14:15:00,
2013-08-16 10:20:00,83.8,80.2,29.99,ENE,58,7.0,13.0,89,0.04,,,0.15,934.0,meteohub,2013-08-16 14:20:00,
2013-08-16 10:25:00,84.6,80.6,29.99,ENE,73,5.0,13.0,88,0.04,,,0.15,1091.0,meteohub,2013-08-16 14:25:00,
2013-08-16 10:30:00,85.5,81.1,29.99,NE,34,4.0,13.0,87,0.02,,,0.15,1100.0,meteohub,2013-08-16 14:30:00,
2013-08-16 10:35:00,85.6,80.6,29.99,ENE,62,6.0,16.0,85,0.01,,,0.15,651.0,meteohub,2013-08-16 14:35:00,
2013-08-16 10:40:00,85.5,80.4,29.99,NNE,18,11.0,16.0,85,0.00,,,0.15,545.0,meteohub,2013-08-16 14:40:00,
2013-08-16 10:46:00,85.5,80.4,29.99,NE,44,7.0,16.0,85,0.00,,,0.15,545.0,meteohub,2013-08-16 14:46:00,
2013-08-16 10:51:00,85.3,79.9,29.99,East,83,10.0,14.0,84,0.00,,,0.15,396.0,meteohub,2013-08-16 14:51:00,
2013-08-16 10:56:00,85.1,79.7,29.99,NNE,31,9.0,13.0,84,0.00,,,0.15,245.0,meteohub,2013-08-16 14:56:00,
2013-08-16 11:01:00,85.1,79.7,29.99,East,99,3.0,16.0,84,0.00,,,0.15,259.0,meteohub,2013-08-16 15:01:00,
2013-08-16 11:06:00,85.3,79.5,29.99,ENE,68,8.0,16.0,83,0.00,,,0.15,280.0,meteohub,2013-08-16 15:06:00,
2013-08-16 11:11:00,85.1,79.0,29.99,ENE,72,9.0,16.0,82,0.00,,,0.15,164.0,meteohub,2013-08-16 15:11:00,
2013-08-16 11:16:00,84.6,78.8,29.99,South,169,0.0,15.0,83,0.00,,,0.15,84.0,meteohub,2013-08-16 15:16:00,
2013-08-16 11:21:00,83.5,78.8,29.99,SSW,193,0.0,15.0,86,0.00,,,0.15,65.0,meteohub,2013-08-16 15:21:00,
2013-08-16 11:26:00,82.0,78.8,29.99,SW,217,0.0,13.0,90,0.05,,,0.17,72.0,meteohub,2013-08-16 15:26:00,
2013-08-16 11:31:00,81.1,78.6,29.99,South,171,0.0,8.0,92,0.06,,,0.21,44.0,meteohub,2013-08-16 15:31:00,
2013-08-16 11:36:00,81.0,79.0,29.99,NE,49,0.0,0.0,94,0.09,,,0.24,30.0,meteohub,2013-08-16 15:36:00,
2013-08-16 11:41:00,80.8,79.5,29.99,East,90,0.0,6.0,96,0.14,,,0.24,49.0,meteohub,2013-08-16 15:41:00,
2013-08-16 11:46:00,80.2,79.0,30.00,NE,41,0.0,6.0,96,0.22,,,0.37,86.0,meteohub,2013-08-16 15:46:00,
2013-08-16 11:51:00,79.3,78.1,30.00,NE,44,0.0,6.0,96,0.36,,,0.51,127.0,meteohub,2013-08-16 15:51:00,
2013-08-16 11:56:00,79.3,78.4,30.00,ENE,75,0.0,2.0,97,0.40,,,0.55,179.0,meteohub,2013-08-16 15:56:00,
2013-08-16 12:01:00,79.3,78.8,29.99,ENE,76,0.0,0.0,98,0.44,,,0.59,229.0,meteohub,2013-08-16 16:01:00,
2013-08-16 12:06:00,79.3,78.8,29.99,ENE,76,0.0,0.0,98,0.44,,,0.59,303.0,meteohub,2013-08-16 16:06:00,
2013-08-16 12:11:00,79.9,79.5,29.99,ENE,72,0.0,6.0,99,0.44,,,0.59,382.0,meteohub,2013-08-16 16:11:00,
2013-08-16 12:16:00,79.2,78.6,29.99,East,88,0.0,6.0,98,0.44,,,0.59,398.0,meteohub,2013-08-16 16:16:00,
2013-08-16 12:21:00,79.9,79.5,29.99,East,88,0.0,5.0,99,0.43,,,0.59,732.0,meteohub,2013-08-16 16:21:00,
2013-08-16 12:26:00,81.1,80.8,29.99,East,93,0.0,5.0,99,0.39,,,0.59,1170.0,meteohub,2013-08-16 16:26:00,
2013-08-16 12:32:00,81.3,80.8,29.99,East,93,0.0,0.0,98,0.36,,,0.59,463.0,meteohub,2013-08-16 16:32:00,
2013-08-16 12:37:00,82.8,81.5,29.99,East,93,0.0,0.0,96,0.35,,,0.59,1320.0,meteohub,2013-08-16 16:37:00,
2013-08-16 12:42:00,83.8,82.2,29.99,NE,47,0.0,0.0,95,0.29,,,0.59,1320.0,meteohub,2013-08-16 16:42:00,
2013-08-16 12:47:00,84.4,81.9,29.98,ENE,75,0.0,0.0,92,0.12,,,0.59,510.0,meteohub,2013-08-16 16:47:00,
2013-08-16 12:52:00,84.4,81.1,29.98,ENE,73,0.0,0.0,90,0.06,,,0.59,278.0,meteohub,2013-08-16 16:52:00,
2013-08-16 12:57:00,85.1,80.8,29.98,ESE,103,4.0,0.0,87,0.01,,,0.59,1181.0,meteohub,2013-08-16 16:57:00,
2013-08-16 13:02:00,85.6,80.6,29.96,ENE,75,0.0,11.0,85,0.00,,,0.59,345.0,meteohub,2013-08-16 17:02:00,
2013-08-16 13:07:00,85.8,80.8,29.96,ENE,69,0.0,11.0,85,0.00,,,0.59,720.0,meteohub,2013-08-16 17:07:00,
2013-08-16 13:12:00,86.2,81.1,29.96,East,93,0.0,11.0,85,0.00,,,0.59,1128.0,meteohub,2013-08-16 17:12:00,
2013-08-16 13:17:00,86.5,80.8,29.96,East,95,6.0,7.0,83,0.00,,,0.59,1253.0,meteohub,2013-08-16 17:17:00,
2013-08-16 13:22:00,86.5,80.4,29.96,East,92,0.0,8.0,82,0.00,,,0.59,547.0,meteohub,2013-08-16 17:22:00,
2013-08-16 13:27:00,86.5,80.4,29.96,East,83,5.0,8.0,82,0.00,,,0.59,181.0,meteohub,2013-08-16 17:27:00,
2013-08-16 13:32:00,86.4,81.0,29.95,East,93,0.0,11.0,84,0.00,,,0.59,181.0,meteohub,2013-08-16 17:32:00,
2013-08-16 13:37:00,86.5,81.1,29.95,ENE,73,2.0,11.0,84,0.00,,,0.59,623.0,meteohub,2013-08-16 17:37:00,
2013-08-16 13:42:00,86.4,79.9,29.95,ENE,68,2.0,12.0,81,0.00,,,0.59,350.0,meteohub,2013-08-16 17:42:00,
2013-08-16 13:47:00,86.5,80.1,29.95,NE,49,4.0,12.0,81,0.01,,,0.60,257.0,meteohub,2013-08-16 17:47:00,
2013-08-16 13:52:00,86.4,79.9,29.95,East,97,6.0,12.0,81,0.01,,,0.60,206.0,meteohub,2013-08-16 17:52:00,
2013-08-16 13:57:00,85.8,79.3,29.95,SE,140,0.0,12.0,81,0.01,,,0.60,169.0,meteohub,2013-08-16 17:57:00,
2013-08-16 14:02:00,85.5,79.0,29.95,SE,141,0.0,12.0,81,0.01,,,0.60,91.0,meteohub,2013-08-16 18:02:00,
2013-08-16 14:08:00,84.6,79.2,29.95,SE,143,0.0,12.0,84,0.01,,,0.60,46.0,meteohub,2013-08-16 18:08:00,
2013-08-16 14:13:00,84.0,79.3,29.94,SE,143,0.0,10.0,86,0.01,,,0.60,67.0,meteohub,2013-08-16 18:13:00,
2013-08-16 14:18:00,83.7,79.0,29.94,ENE,76,5.0,0.0,86,0.01,,,0.60,120.0,meteohub,2013-08-16 18:18:00,
2013-08-16 14:23:00,83.8,79.2,29.94,East,100,5.0,0.0,86,0.01,,,0.60,123.0,meteohub,2013-08-16 18:23:00,
2013-08-16 14:28:00,83.8,78.8,29.94,NE,49,6.0,12.0,85,0.01,,,0.60,155.0,meteohub,2013-08-16 18:28:00,
2013-08-16 14:33:00,83.8,78.4,29.94,NE,47,3.0,14.0,84,0.01,,,0.60,181.0,meteohub,2013-08-16 18:33:00,
2013-08-16 14:38:00,83.8,78.8,29.94,ENE,58,0.0,14.0,85,0.01,,,0.60,135.0,meteohub,2013-08-16 18:38:00,
2013-08-16 14:43:00,84.0,79.0,29.94,East,93,0.0,14.0,85,0.00,,,0.60,120.0,meteohub,2013-08-16 18:43:00,
2013-08-16 14:48:00,84.0,79.0,29.94,SE,127,0.0,11.0,85,0.00,,,0.60,99.0,meteohub,2013-08-16 18:48:00,
2013-08-16 14:53:00,83.1,77.7,29.94,SW,222,6.0,10.0,84,0.00,,,0.60,69.0,meteohub,2013-08-16 18:53:00,
2013-08-16 14:58:00,82.4,77.7,29.95,SW,227,0.0,8.0,86,0.00,,,0.60,69.0,meteohub,2013-08-16 18:58:00,
2013-08-16 15:03:00,81.7,77.4,29.95,WSW,243,0.0,11.0,87,0.00,,,0.60,77.0,meteohub,2013-08-16 19:03:00,
2013-08-16 15:08:00,81.1,77.5,29.95,SW,234,0.0,11.0,89,0.00,,,0.60,84.0,meteohub,2013-08-16 19:08:00,
2013-08-16 15:13:00,81.0,77.7,29.94,SW,234,0.0,10.0,90,0.00,,,0.60,88.0,meteohub,2013-08-16 19:13:00,
2013-08-16 15:18:00,81.0,78.1,29.94,WSW,237,0.0,8.0,91,0.00,,,0.60,106.0,meteohub,2013-08-16 19:18:00,
2013-08-16 15:23:00,81.0,78.1,29.94,SW,236,0.0,0.0,91,0.00,,,0.60,118.0,meteohub,2013-08-16 19:23:00,
2013-08-16 15:28:00,81.1,78.6,29.94,SW,236,0.0,0.0,92,0.00,,,0.60,130.0,meteohub,2013-08-16 19:28:00,
2013-08-16 15:34:00,81.1,78.6,29.94,SW,236,0.0,0.0,92,0.00,,,0.60,114.0,meteohub,2013-08-16 19:34:00,
2013-08-16 15:38:00,81.3,78.8,29.94,SW,236,0.0,0.0,92,0.00,,,0.60,146.0,meteohub,2013-08-16 19:38:00,
2013-08-16 15:43:00,81.9,79.0,29.93,SW,236,0.0,0.0,91,0.00,,,0.60,155.0,meteohub,2013-08-16 19:43:00,
2013-08-16 15:48:00,81.9,78.6,29.93,SW,236,0.0,0.0,90,0.00,,,0.60,162.0,meteohub,2013-08-16 19:48:00,
2013-08-16 15:53:00,82.2,78.6,29.93,SW,236,0.0,0.0,89,0.00,,,0.60,181.0,meteohub,2013-08-16 19:53:00,
2013-08-16 15:59:00,82.4,78.4,29.93,SW,236,0.0,0.0,88,0.00,,,0.60,128.0,meteohub,2013-08-16 19:59:00,
2013-08-16 16:04:00,82.6,78.6,29.93,SW,234,0.0,0.0,88,0.00,,,0.60,91.0,meteohub,2013-08-16 20:04:00,
2013-08-16 16:09:00,82.8,78.8,29.93,SW,236,0.0,0.0,88,0.00,,,0.60,143.0,meteohub,2013-08-16 20:09:00,
2013-08-16 16:14:00,82.9,79.0,29.93,WSW,237,0.0,0.0,88,0.00,,,0.60,40.0,meteohub,2013-08-16 20:14:00,
2013-08-16 16:19:00,82.8,79.2,29.93,SW,236,0.0,0.0,89,0.00,,,0.60,21.0,meteohub,2013-08-16 20:19:00,
2013-08-16 16:24:00,82.2,79.3,29.93,SW,233,0.0,0.0,91,0.03,,,0.63,23.0,meteohub,2013-08-16 20:24:00,
2013-08-16 16:29:00,82.0,79.9,29.93,SW,233,0.0,3.0,93,0.04,,,0.64,25.0,meteohub,2013-08-16 20:29:00,
2013-08-16 16:34:00,81.7,79.7,29.93,SW,232,0.0,3.0,94,0.05,,,0.65,21.0,meteohub,2013-08-16 20:34:00,
2013-08-16 16:39:00,81.3,79.7,29.93,WSW,243,0.0,0.0,95,0.06,,,0.66,26.0,meteohub,2013-08-16 20:39:00,
2013-08-16 16:44:00,81.1,79.5,29.93,WSW,243,0.0,0.0,95,0.08,,,0.68,32.0,meteohub,2013-08-16 20:44:00,
2013-08-16 16:49:00,81.1,79.9,29.93,WSW,244,0.0,0.0,96,0.08,,,0.68,33.0,meteohub,2013-08-16 20:49:00,
2013-08-16 16:54:00,80.8,79.5,29.93,SW,224,0.0,0.0,96,0.09,,,0.69,32.0,meteohub,2013-08-16 20:54:00,
2013-08-16 16:59:00,80.4,79.2,29.93,South,178,0.0,7.0,96,0.09,,,0.69,26.0,meteohub,2013-08-16 20:59:00,
2013-08-16 17:04:00,80.1,78.8,29.93,SE,138,4.0,7.0,96,0.09,,,0.69,28.0,meteohub,2013-08-16 21:04:00,
2013-08-16 17:09:00,79.2,77.9,29.93,SE,136,0.0,14.0,96,0.30,,,0.90,28.0,meteohub,2013-08-16 21:09:00,
2013-08-16 17:14:00,79.3,78.4,29.93,SE,137,0.0,14.0,97,0.38,,,0.98,42.0,meteohub,2013-08-16 21:14:00,
2013-08-16 17:19:00,79.9,79.3,29.93,SE,134,0.0,14.0,98,0.37,,,0.99,55.0,meteohub,2013-08-16 21:19:00,
2013-08-16 17:24:00,79.5,79.0,29.93,SE,137,0.0,0.0,98,0.37,,,1.00,58.0,meteohub,2013-08-16 21:24:00,
2013-08-16 17:29:00,79.5,79.2,29.94,SE,136,0.0,0.0,99,0.36,,,1.00,53.0,meteohub,2013-08-16 21:29:00,
2013-08-16 17:34:00,79.5,79.2,29.94,SE,136,0.0,0.0,99,0.35,,,1.01,55.0,meteohub,2013-08-16 21:34:00,
2013-08-16 17:39:00,79.3,79.0,29.94,SE,136,0.0,0.0,99,0.35,,,1.01,62.0,meteohub,2013-08-16 21:39:00,
2013-08-16 17:44:00,79.5,79.2,29.93,SE,136,0.0,4.0,99,0.33,,,1.01,48.0,meteohub,2013-08-16 21:44:00,
2013-08-16 17:49:00,79.5,79.2,29.93,SE,137,0.0,4.0,99,0.33,,,1.01,40.0,meteohub,2013-08-16 21:49:00,
2013-08-16 17:54:00,79.5,79.2,29.93,SE,137,0.0,4.0,99,0.32,,,1.01,35.0,meteohub,2013-08-16 21:54:00,
2013-08-16 17:59:00,79.5,79.2,29.94,SE,137,0.0,0.0,99,0.32,,,1.01,30.0,meteohub,2013-08-16 21:59:00,
2013-08-16 18:04:00,79.5,79.2,29.94,SE,138,0.0,0.0,99,0.29,,,1.01,28.0,meteohub,2013-08-16 22:04:00,
2013-08-16 18:09:00,79.3,79.0,29.94,SE,136,0.0,0.0,99,0.05,,,1.01,25.0,meteohub,2013-08-16 22:09:00,
2013-08-16 18:14:00,79.5,79.2,29.94,SE,136,0.0,0.0,99,0.03,,,1.01,21.0,meteohub,2013-08-16 22:14:00,
2013-08-16 18:20:00,79.9,79.5,29.94,SE,136,0.0,0.0,99,0.01,,,1.01,18.0,meteohub,2013-08-16 22:20:00,
2013-08-16 18:25:00,79.9,79.5,29.94,SE,136,0.0,0.0,99,0.01,,,1.01,14.0,meteohub,2013-08-16 22:25:00,
2013-08-16 18:30:00,79.5,79.2,29.95,SE,136,0.0,0.0,99,0.00,,,1.01,12.0,meteohub,2013-08-16 22:30:00,
2013-08-16 18:35:00,79.3,79.0,29.95,SE,137,0.0,0.0,99,0.00,,,1.01,11.0,meteohub,2013-08-16 22:35:00,
2013-08-16 18:40:00,79.2,78.8,29.95,SE,138,0.0,0.0,99,0.00,,,1.01,5.0,meteohub,2013-08-16 22:40:00,
2013-08-16 18:45:00,79.2,78.8,29.96,SE,136,0.0,0.0,99,0.00,,,1.01,0.0,meteohub,2013-08-16 22:45:00,
2013-08-16 18:50:00,79.3,79.0,29.96,SE,136,0.0,0.0,99,0.00,,,1.01,0.0,meteohub,2013-08-16 22:50:00,
2013-08-16 18:55:00,79.3,79.0,29.96,SE,137,0.0,0.0,99,0.00,,,1.01,0.0,meteohub,2013-08-16 22:55:00,
2013-08-16 19:00:00,79.2,79.2,29.96,SE,137,0.0,0.0,100,0.00,,,1.01,0.0,meteohub,2013-08-16 23:00:00,
2013-08-16 19:05:00,79.3,79.3,29.96,SE,137,0.0,0.0,100,0.00,,,1.01,0.0,meteohub,2013-08-16 23:05:00,
2013-08-16 19:10:00,79.2,79.2,29.96,SE,136,0.0,0.0,100,0.00,,,1.01,0.0,meteohub,2013-08-16 23:10:00,
2013-08-16 19:15:00,79.2,79.2,29.96,SE,136,0.0,0.0,100,0.00,,,1.01,0.0,meteohub,2013-08-16 23:15:00,
2013-08-16 19:20:00,79.2,79.2,29.96,SE,136,0.0,0.0,100,0.00,,,1.01,0.0,meteohub,2013-08-16 23:20:00,
2013-08-16 19:25:00,79.2,79.2,29.96,SE,134,0.0,0.0,100,0.00,,,1.01,0.0,meteohub,2013-08-16 23:25:00,
2013-08-16 19:30:00,79.0,79.0,29.96,SE,136,0.0,0.0,100,0.00,,,1.01,0.0,meteohub,2013-08-16 23:30:00,
2013-08-16 19:35:00,79.2,79.2,29.96,SE,136,0.0,0.0,100,0.00,,,1.01,0.0,meteohub,2013-08-16 23:35:00,
2013-08-16 19:41:00,79.2,79.2,29.96,SE,136,0.0,0.0,100,0.00,,,1.01,0.0,meteohub,2013-08-16 23:41:00,
2013-08-16 19:46:00,79.2,79.2,29.97,SE,136,0.0,0.0,100,0.00,,,1.01,0.0,meteohub,2013-08-16 23:46:00,
2013-08-16 19:51:00,79.0,79.0,29.97,SE,136,0.0,0.0,100,0.00,,,1.01,0.0,meteohub,2013-08-16 23:51:00,
2013-08-16 19:56:00,79.0,79.0,29.97,SE,136,0.0,0.0,100,0.00,,,1.01,0.0,meteohub,2013-08-16 23:56:00,
2013-08-16 20:01:00,79.0,79.0,29.98,SE,136,0.0,0.0,100,0.00,,,1.01,0.0,meteohub,2013-08-17 00:01:00,
2013-08-16 20:06:00,79.0,79.0,29.98,SE,136,0.0,0.0,100,0.00,,,1.01,0.0,meteohub,2013-08-17 00:06:00,
2013-08-16 20:11:00,79.0,79.0,29.98,SE,137,0.0,0.0,100,0.00,,,1.01,0.0,meteohub,2013-08-17 00:11:00,
2013-08-16 20:16:00,78.8,78.8,29.98,SE,136,0.0,0.0,100,0.00,,,1.01,0.0,meteohub,2013-08-17 00:16:00,
2013-08-16 20:21:00,78.8,78.8,29.98,SE,137,0.0,0.0,100,0.00,,,1.01,0.0,meteohub,2013-08-17 00:21:00,
2013-08-16 20:27:00,79.0,79.0,29.98,SE,136,0.0,0.0,100,0.00,,,1.01,0.0,meteohub,2013-08-17 00:27:00,
2013-08-16 20:32:00,79.0,79.0,29.98,SE,136,0.0,0.0,100,0.00,,,1.01,0.0,meteohub,2013-08-17 00:32:00,
2013-08-16 20:37:00,79.2,79.2,29.98,SE,136,0.0,0.0,100,0.00,,,1.01,0.0,meteohub,2013-08-17 00:37:00,
2013-08-16 20:42:00,79.0,79.0,29.98,SE,136,0.0,0.0,100,0.00,,,1.01,0.0,meteohub,2013-08-17 00:42:00,
2013-08-16 20:47:00,78.8,78.8,29.99,SE,136,0.0,0.0,100,0.00,,,1.01,0.0,meteohub,2013-08-17 00:47:00,
2013-08-16 20:52:00,78.8,78.8,29.99,SE,136,0.0,0.0,100,0.00,,,1.01,0.0,meteohub,2013-08-17 00:52:00,
2013-08-16 20:57:00,78.8,78.8,29.99,SE,131,0.0,0.0,100,0.00,,,1.01,0.0,meteohub,2013-08-17 00:57:00,
2013-08-16 21:02:00,78.8,78.8,29.99,SE,136,0.0,0.0,100,0.00,,,1.01,0.0,meteohub,2013-08-17 01:02:00,
2013-08-16 21:07:00,78.8,78.8,29.99,SE,136,0.0,0.0,100,0.00,,,1.01,0.0,meteohub,2013-08-17 01:07:00,
2013-08-16 21:12:00,78.8,78.8,29.99,SE,136,0.0,0.0,100,0.00,,,1.01,0.0,meteohub,2013-08-17 01:12:00,
2013-08-16 21:17:00,78.8,78.8,29.99,SE,136,0.0,0.0,100,0.00,,,1.01,0.0,meteohub,2013-08-17 01:17:00,
2013-08-16 21:22:00,78.8,78.8,29.99,SE,131,0.0,0.0,100,0.00,,,1.01,0.0,meteohub,2013-08-17 01:22:00,
2013-08-16 21:27:00,78.8,78.8,29.99,SE,136,0.0,0.0,100,0.00,,,1.01,0.0,meteohub,2013-08-17 01:27:00,
2013-08-16 21:32:00,78.6,78.6,30.00,SE,136,0.0,0.0,100,0.00,,,1.01,0.0,meteohub,2013-08-17 01:32:00,
2013-08-16 21:37:00,78.6,78.6,30.00,SE,134,0.0,0.0,100,0.00,,,1.01,0.0,meteohub,2013-08-17 01:37:00,
2013-08-16 21:42:00,78.6,78.6,30.00,SE,137,0.0,0.0,100,0.00,,,1.01,0.0,meteohub,2013-08-17 01:42:00,
2013-08-16 21:47:00,78.4,78.4,30.00,SE,136,0.0,0.0,100,0.00,,,1.01,0.0,meteohub,2013-08-17 01:47:00,
2013-08-16 21:52:00,78.3,78.3,30.00,SE,136,0.0,0.0,100,0.00,,,1.01,0.0,meteohub,2013-08-17 01:52:00,
2013-08-16 21:57:00,78.4,78.4,30.01,SE,136,0.0,0.0,100,0.00,,,1.01,0.0,meteohub,2013-08-17 01:57:00,
2013-08-16 22:02:00,78.4,78.4,30.01,SE,136,0.0,0.0,100,0.00,,,1.01,0.0,meteohub,2013-08-17 02:02:00,
2013-08-16 22:07:00,78.3,78.3,30.01,SE,136,0.0,0.0,100,0.00,,,1.01,0.0,meteohub,2013-08-17 02:07:00,
2013-08-16 22:12:00,78.3,78.3,30.01,SE,137,0.0,0.0,100,0.00,,,1.01,0.0,meteohub,2013-08-17 02:12:00,
2013-08-16 22:17:00,78.1,78.1,30.01,SE,136,0.0,0.0,100,0.00,,,1.01,0.0,meteohub,2013-08-17 02:17:00,
2013-08-16 22:22:00,78.1,78.1,30.01,SE,136,0.0,0.0,100,0.00,,,1.01,0.0,meteohub,2013-08-17 02:22:00,
2013-08-16 22:27:00,78.1,78.1,30.01,SE,136,0.0,0.0,100,0.00,,,1.01,0.0,meteohub,2013-08-17 02:27:00,
2013-08-16 22:32:00,77.9,77.9,30.01,SE,136,0.0,0.0,100,0.00,,,1.01,0.0,meteohub,2013-08-17 02:32:00,
2013-08-16 22:37:00,77.9,77.9,30.01,SE,136,0.0,0.0,100,0.00,,,1.01,0.0,meteohub,2013-08-17 02:37:00,
2013-08-16 22:42:00,77.7,77.7,30.01,SE,137,0.0,0.0,100,0.00,,,1.01,0.0,meteohub,2013-08-17 02:42:00,
2013-08-16 22:47:00,77.7,77.7,30.01,SE,136,0.0,0.0,100,0.00,,,1.01,0.0,meteohub,2013-08-17 02:47:00,
2013-08-16 22:53:00,77.7,77.7,30.01,SE,136,0.0,0.0,100,0.00,,,1.01,0.0,meteohub,2013-08-17 02:53:00,
2013-08-16 22:58:00,77.7,77.7,30.01,SE,136,0.0,0.0,100,0.00,,,1.01,0.0,meteohub,2013-08-17 02:58:00,
2013-08-16 23:03:00,77.7,77.7,30.01,SE,137,0.0,0.0,100,0.00,,,1.01,0.0,meteohub,2013-08-17 03:03:00,
2013-08-16 23:08:00,77.7,77.7,30.01,SE,136,0.0,0.0,100,0.00,,,1.01,0.0,meteohub,2013-08-17 03:08:00,
2013-08-16 23:13:00,77.5,77.5,30.01,SE,136,0.0,0.0,100,0.00,,,1.01,0.0,meteohub,2013-08-17 03:13:00,
2013-08-16 23:18:00,77.4,77.4,30.01,SE,134,0.0,0.0,100,0.00,,,1.01,0.0,meteohub,2013-08-17 03:18:00,
2013-08-16 23:23:00,77.4,77.4,30.01,SE,137,0.0,0.0,100,0.00,,,1.01,0.0,meteohub,2013-08-17 03:23:00,
2013-08-16 23:28:00,77.4,77.4,30.00,SE,136,0.0,0.0,100,0.00,,,1.01,0.0,meteohub,2013-08-17 03:28:00,
2013-08-16 23:33:00,77.4,77.4,30.00,SE,136,0.0,0.0,100,0.00,,,1.01,0.0,meteohub,2013-08-17 03:33:00,
2013-08-16 23:38:00,77.4,77.4,30.00,SE,136,0.0,0.0,100,0.00,,,1.01,0.0,meteohub,2013-08-17 03:38:00,
2013-08-16 23:43:00,77.4,77.4,30.00,SE,136,0.0,0.0,100,0.00,,,1.01,0.0,meteohub,2013-08-17 03:43:00,
2013-08-16 23:48:00,77.4,77.4,30.00,SE,137,0.0,0.0,100,0.00,,,1.01,0.0,meteohub,2013-08-17 03:48:00,
2013-08-16 23:53:00,77.2,77.2,30.00,SE,136,0.0,0.0,100,0.00,,,1.01,0.0,meteohub,2013-08-17 03:53:00,
2013-08-16 23:58:00,77.2,77.2,29.99,SE,136,0.0,0.0,100,0.00,,,1.01,0.0,meteohub,2013-08-17 03:58:00,